User: anonymous   Login
Location: Unspecified
(0.0000°N, 0.0000°E)
Time: 17:09:27
(UTC+00:00)
Language:

KANOPUS-V 3 - Orbit

View from above orbital plane
View from above orbital plane
View from above satellite
View from above satellite

Ground track
Ground track

The orbit data is extracted from the following two-line orbital elements,

1 43180U 18014A   18262.06832760  .00000362  00000-0  20563-4 0  9992
2 43180  97.4499 169.0279 0001864  69.3288  54.7577 15.18908239 34906
Epoch (UTC): 19 September 2018 01:38:23
Eccentricity: 0.0001864
inclination: 97.4499°
perigee height: 508 km
apogee height: 510 km
right ascension of ascending node: 169.0279°
argument of perigee: 69.3288°
revolutions per day: 15.18908239
mean anomaly at epoch: 54.7577°
orbit number at epoch: 3490

The dashed part of the orbit path shows where the satellite is in the earth's shadow,  

DLR